Weather History for San Jose, Costa Rica

Change the Weather History Date:

Monday, November 3, 2014

  Actual Average Record
Temperature  
Mean Temperature 72 °F -  
Max Temperature 77 °F 78 °F 86 °F (1997)
Min Temperature 68 °F 64 °F 62 °F (2003)
Cooling Degree Days 8    
Growing Degree Days 22 (Base 50)    
Moisture  
Dew Point 63 °F    
Average Humidity 73    
Maximum Humidity 88    
Minimum Humidity 60    
Precipitation  
Precipitation 0.00 in 0.16 in - ()
Sea Level Pressure  
Sea Level Pressure 29.96 in    
Wind  
Wind Speed 4 mph ()    
Max Wind Speed 16 mph    
Max Gust Speed 23 mph    
Visibility 7.8 miles    
Events Rain    
Averages and records for this station are not official NWS values.
T = Trace of Precipitation, MM = Missing Value Source: Averaged Metar Reports

Daily Weather History Graph

Daily Weather History Graph

Search for Another Location

Airport:

Trip Planner

Search our weather history database for the weather conditions in past years. The results will help you decide how hot, cold, wet, or windy it might be!

Date:

Astronomy

Nov. 03, 2014 Rise Set
Actual Time 5:27 AM CST 5:12 PM CST
Civil Twilight 5:06 AM CST 5:34 PM CST
Nautical Twilight 4:40 AM CST 5:59 PM CST
Astronomical Twilight 4:15 AM CST 6:24 PM CST
Moon 2:45 PM CST (11/3) 2:19 AM CST (11/3)
Length of Visible Light 12h 28m
Length of Day
11h 45m
Waxing Gibbous, 87% of the Moon is Illuminated
Nov 3
Waxing Gibbous
Nov 6
Full
Nov 14
Last Quarter
Nov 22
New
Nov 29
First Quarter

Hourly Weather History & Observations

Time (CST) Temp. Dew Point Humidity Pressure Visibility Wind Dir Wind Speed Gust Speed Precip Events Conditions
12:00 AM 71 °F 64 °F 71% 29.84 in 12 mi Calm Calm - -   Scattered Clouds
12:00 AM 71.6 °F 64.4 °F 78% 29.99 in 6.2 mi Calm Calm - N/A   Scattered Clouds
1:00 AM 71.6 °F 62.6 °F 73% 29.97 in 6.2 mi Calm Calm - N/A   Scattered Clouds
2:00 AM 69.8 °F 64.4 °F 83% 29.95 in - North 3.5 mph - N/A   Clear
3:00 AM 70 °F 64 °F 75% 29.82 in 12 mi NNE 3.5 mph - -   Clear
3:00 AM 69.8 °F 64.4 °F 83% 29.95 in - NNE 3.5 mph - N/A   Clear
4:00 AM 69.8 °F 64.4 °F 83% 29.96 in 6.2 mi ENE 5.8 mph - N/A   Scattered Clouds
5:00 AM 69.8 °F 62.6 °F 78% 29.97 in 6.2 mi ENE 4.6 mph - N/A   Scattered Clouds
6:00 AM 70 °F 64 °F 74% 29.86 in 12 mi NE 4.6 mph - -  
6:00 AM 69.8 °F 64.4 °F 83% 29.99 in 6.2 mi NE 4.6 mph - N/A   Mostly Cloudy
7:00 AM 71.6 °F 64.4 °F 78% 30.03 in 6.2 mi NNE 3.5 mph - N/A Rain Rain
7:35 AM 71.6 °F 64.4 °F 78% 30.03 in 6.2 mi East 5.8 mph - N/A   Mostly Cloudy
8:00 AM 73.4 °F 62.6 °F 69% 30.03 in 6.2 mi East 6.9 mph - N/A   Mostly Cloudy
9:00 AM 73 °F 63 °F 62% 29.90 in 12 mi ESE 8.1 mph - -   Overcast
9:00 AM 73.4 °F 62.6 °F 69% 30.03 in 6.2 mi ESE 8.1 mph - N/A   Mostly Cloudy
10:00 AM 75.2 °F 64.4 °F 69% 30.04 in 6.2 mi ESE 8.1 mph - N/A   Mostly Cloudy
10:30 AM 75.2 °F 62.6 °F 65% 30.02 in 6.2 mi East 10.4 mph - N/A Rain Rain
11:00 AM 73.4 °F 66.2 °F 78% 30.03 in 6.2 mi NE 5.8 mph - N/A Rain Rain
12:00 PM 70 °F 67 °F 87% 29.88 in 9 mi NNW 4.6 mph - - Rain Light Rain
12:00 PM 69.8 °F 66.2 °F 88% 30.01 in 6.2 mi NNW 4.6 mph - N/A   Mostly Cloudy
1:00 PM 75.2 °F 66.2 °F 73% 29.97 in 6.2 mi East 1.2 mph - N/A   Mostly Cloudy
2:00 PM 73.4 °F 62.6 °F 69% 29.95 in 6.2 mi East 5.8 mph - N/A   Mostly Cloudy
3:00 PM 74 °F 63 °F 61% 29.80 in 12 mi ESE 8.1 mph - -   Overcast
3:00 PM 75.2 °F 62.6 °F 65% 29.94 in 6.2 mi ESE 8.1 mph - N/A   Mostly Cloudy
4:00 PM 73.4 °F 64.4 °F 73% 29.94 in 6.2 mi East 8.1 mph - N/A Rain Light Rain
5:00 PM 73.4 °F 60.8 °F 65% 29.96 in 6.2 mi ENE 12.7 mph - N/A   Mostly Cloudy
6:00 PM 72 °F 61 °F 60% 29.86 in 12 mi East 6.9 mph - -   Scattered Clouds
6:00 PM 71.6 °F 60.8 °F 69% 29.98 in 6.2 mi East 6.9 mph - N/A   Mostly Cloudy
7:00 PM 69.8 °F 59.0 °F 68% 29.99 in - ESE 6.9 mph - N/A   Clear
8:00 PM 69.8 °F 60.8 °F 73% 30.02 in - ESE 9.2 mph - N/A   Clear
9:00 PM - - % 29.90 in 12 mi East 6.9 mph - -   Mostly Cloudy
9:00 PM 71.6 °F 62.6 °F 73% 30.03 in - East 6.9 mph - N/A   Clear
10:00 PM 71.6 °F 62.6 °F 73% 30.02 in - East 16.1 mph - N/A   Clear
11:00 PM 71.6 °F 62.6 °F 73% 29.99 in - East 11.5 mph 23.0 mph N/A   Clear